Location: Mason
(37.5237°N, 89.2543°W)
Time: 15:04:03
(UTC+00:00)

MOS 1-B - Pass Details

Date: 08 December 2021
Orbit: 905 x 913 km, 99.4° (Epoch: 20 January)

Event Time Altitude Azimuth Distance (km) Brightness Sun altitude
Rises 23:40:17 0° 156° (SSE) 3,517 7.4 -12.0°
Reaches altitude 10° 23:42:42 10° 153° (SSE) 2,580 6.7 -12.4°
Maximum altitude 23:48:23 66° 73° (ENE) 984 4.3 -13.5°
Drops below altitude 10° 23:54:07 10° 352° (N) 2,599 6.6 -14.6°
Sets 23:56:33 0° 350° (N) 3,545 7.4 -15.0°
